Flag for U.S.A. Weather past 2 weeks in San Buenaventura, California, U.S.A.

Now
51 °F

Clear.


Feels Like: 48 °F
Forecast: 47 / 59 °F
Wind: 8 mph from Northeast

Location: Oxnard Airport

Current Time: Mar 3, 2015 at 12:18:11 AM

Latest Report: Mar 2, 2015 at 11:51 PM


Visibility: 10 mi

Pressure: 29.96 "Hg

Humidity: 77%

Dew point: 44 °F

Location of San BuenaventuraLocation

Historic Weather in San Buenaventura — Graph

°F

San Buenaventura temperature yesterday

Maximum temperature yesterday: 60 °F (at 12:51 PM)
Minimum temperature yesterday: 47 °F (at 4:51 AM)
Average temperature yesterday: 54 °F

Past Weeks' High & Low Weather Summary

 TemperatureHumidityPressure
High69 °F (Feb 24, 12:51 PM)96% (Feb 16, 6:51 AM)30.27 "Hg (Feb 16, 6:51 AM)
Low45 °F (Feb 24, 4:51 AM)30% (Feb 24, 12:51 PM)29.72 "Hg (Feb 27, 6:51 PM)
Average58 °F73%29.98 "Hg
* Reported Feb 15 10:58 PM — Mar 2 10:51 PM, San Buenaventura, Weather by CustomWeather, © 2015

Note: Actual official high and low records may vary slightly from our data, if they occured in-between our weather recording intervals... More about our weather records

Advertising

San Buenaventura weather history for previous 24 hours

 ConditionsComfort  
Time TempWeatherWind HumidityBarometerVisibility
10:51 PM
Mon, Mar 2
52 °FOvercast.7 mph77%29.97 "Hg10 mi
9:51 PM51 °FClear.7 mph80%29.96 "Hg10 mi
8:51 PM52 °FClear.6 mph77%29.95 "Hg10 mi
7:51 PM54 °FClear.7 mph72%29.93 "Hg10 mi
6:51 PM57 °FClear.No wind62%29.92 "Hg10 mi
5:51 PM58 °FSunny.5 mph60%29.92 "Hg10 mi
4:51 PM59 °FPartly sunny.9 mph56%29.90 "Hg10 mi
3:51 PM59 °FSunny.9 mph56%29.89 "Hg10 mi
2:51 PM60 °FSunny.8 mph56%29.88 "Hg10 mi
1:51 PM60 °FBroken clouds.13 mph60%29.89 "Hg10 mi
12:51 PM60 °FPassing clouds.12 mph58%29.90 "Hg10 mi
11:51 AM59 °FScattered clouds.8 mph58%29.91 "Hg10 mi
10:51 AM58 °FPartly sunny.6 mph58%29.92 "Hg10 mi
9:51 AM57 °FSunny.No wind64%29.92 "Hg10 mi
8:51 AM54 °FSunny.6 mph69%29.92 "Hg10 mi
7:51 AM48 °FSunny.6 mph83%29.91 "Hg10 mi
6:51 AM47 °FPartly sunny.7 mph80%29.90 "Hg10 mi
5:51 AM47 °FClear.8 mph80%29.89 "Hg10 mi
4:51 AM47 °FClear.5 mph80%29.89 "Hg10 mi
3:51 AM48 °FClear.7 mph80%29.88 "Hg10 mi
2:51 AM48 °FClear.7 mph80%29.89 "Hg10 mi
1:51 AM48 °FClear.5 mph83%29.91 "Hg10 mi
12:51 AM49 °FClear.6 mph84%29.92 "Hg10 mi
Weather by CustomWeather, © 2015

See weather overviewHow to use our weather pages